Regional Weather Roundup
Issued by NWS

Home | Current Version | Previous Version | Text Only | Print | Product List | Glossary Off
Versions: 1 2 3 4 5 6 7 8 9 10 11 12 13 14 15 16 17 18 19 20 21 22 23 24 25 26 27 28 29 30 31 32 33 34 35 36 37 38 39 40 41 42 43 44 45 46 47 48 49 50

000
ASUS43 KOAX 281410
RWRNE

WEATHER ROUNDUP FOR NEBRASKA
NATIONAL WEATHER SERVICE OMAHA NE
800 AM CST FRI NOV 28 2014

NOTES: SATELLITE DATA IS BEING USED TO AUGMENT CLOUD COVER ABOVE
       12000 FEET.
       "FAIR" INDICATES FEW OR NO CLOUDS BELOW 12,000 FEET WITH NO
       SIGNIFICANT WEATHER AND/OR OBSTRUCTIONS TO VISIBILITY.

  * THESE STATIONS DO NOT REPORT WEATHER SUCH AS RAIN...SNOW OR FOG.

NEZ001>004-019>022-054>056-281500-
NEBRASKA PANHANDLE

CITY           SKY/WX    TMP DP  RH WIND       PRES   REMARKS
SCOTTSBLUFF    PTCLDY    55  22  27 W22G29    29.81F
ALLIANCE       CLEAR     38  25  59 SW15      29.81S WCI  29
CHADRON        PTCLDY   N/A N/A N/A W9        29.77S
KIMBALL        CLOUDY    50  19  28 W14G20    29.89S
SIDNEY         PTCLDY    38  25  59 W14G30    29.88S WCI  30
$$

NEZ057>060-069>072-079>082-281500-
SOUTHWEST NEBRASKA

CITY           SKY/WX    TMP DP  RH WIND       PRES   REMARKS
NORTH PLATTE   PTCLDY    21  19  92 NW5       29.85F WCI  15
IMPERIAL       PTCLDY    30  23  75 S3        29.88F
LEXINGTON      MOCLDY    25  22  88 CALM      29.84F
MCCOOK         CLEAR     31  24  75 W6        29.88F WCI  25
OGALLALA       PTCLDY    29  26  86 CALM      29.85S
$$

NEZ005>010-023>029-035>040-094-281500-
NORTH CENTRAL NEBRASKA

CITY           SKY/WX    TMP DP  RH WIND       PRES   REMARKS
VALENTINE      MOCLDY    29  25  85 W3        29.73F
AINSWORTH      PTCLDY    33  27  80 SW6       29.75F WCI  27
BROKEN BOW     PTCLDY    37  27  67 CALM      29.82F
O`NEILL        CLEAR     28  25  87 SW3       29.77S
ORD            PTCLDY    18  14  84 CALM      29.80F
THEDFORD       PTCLDY    32  27  81 CALM      29.79F
$$

NEZ041-046>049-061>064-073>077-083>087-281500-
SOUTH CENTRAL NEBRASKA

CITY           SKY/WX    TMP DP  RH WIND       PRES   REMARKS
GRAND ISLAND   PTCLDY    26  20  77 SW5       29.84F WCI  20
AURORA         CLEAR     25  20  82 SW6       29.83F WCI  18
HASTINGS       CLEAR     30  23  75 SW7       29.84F WCI  23
HEBRON         CLEAR     28  22  77 CALM      29.88F
HOLDREGE       PTCLDY    38  27  63 W9        29.85S WCI  32
KEARNEY *      CLEAR     28  21  74 SW6       29.84F WCI  22
YORK           PTCLDY    25  19  80 SW9       29.84F WCI  15
$$

NEZ011>018-030>034-042>045-281500-
NORTHEAST NEBRASKA

CITY           SKY/WX    TMP DP  RH WIND       PRES   REMARKS
NORFOLK        PTCLDY    25  19  78 S6        29.79F WCI  18
ALBION         PTCLDY    20  16  86 CALM      29.81F
BLAIR          PTCLDY    28  23  81 S7        29.86F WCI  21
COLUMBUS *     PTCLDY    25  18  74 S3        29.84F
FREMONT        PTCLDY    27  23  85 SE6       29.86F WCI  20
TEKAMAH        MOCLDY    22  18  85 S8        29.86F WCI  12
WAYNE          PTCLDY    24  19  84 CALM      29.82S
$$

NEZ050>053-065>068-078-088>093-281500-
SOUTHEAST NEBRASKA

CITY           SKY/WX    TMP DP  RH WIND       PRES   REMARKS
LINCOLN        CLEAR     25  19  78 CALM      29.89F
OMAHA EPPLEY   MOCLDY    28  23  81 SE10      29.90F WCI  19
BEATRICE       CLEAR     29  24  81 S6        29.90S WCI  23
FALLS CITY     PTCLDY    28  23  81 S8        29.93F WCI  20
NEBRASKA CITY  PTCLDY    27  21  78 S9        29.90S WCI  18
PLATTSMOUTH    PTCLDY    28  22  80 SE9       29.89F WCI  19
$$

NEZ044-045-051>053-067-281500-
OMAHA AREA

CITY           SKY/WX    TMP DP  RH WIND       PRES   REMARKS
OMAHA EPPLEY   MOCLDY    28  23  81 SE10      29.90F WCI  19
BLAIR          PTCLDY    28  23  81 S7        29.86F WCI  21
FREMONT        PTCLDY    27  23  85 SE6       29.86F WCI  20
MILLARD        PTCLDY    26  22  85 SE5       29.89F WCI  20
OFFUTT AFB     PTCLDY    25  22  86 E7        29.88F WCI  17
PLATTSMOUTH    PTCLDY    28  22  80 SE9       29.89F WCI  19
WAHOO          FAIR      23  19  87 S5        29.87F WCI  17
$$



USA.gov is the U.S. government's official web portal to all federal, state and local government web resources and services.